Tracking 32938 objects as of 13-Jan-2026
HD Live streaming from Space Station
objects crossing your sky now

THOR ABLESTAR DEB

Track THOR ABLESTAR DEB now!
10-day predictions


NORAD ID: 5745
Int'l Code: 1961-015JU
Perigee: 676.5 km
Apogee: 745.3 km
Inclination: 67.1 °
Period: 98.9 minutes
Semi major axis: 7081 km
RCS: 0.0107 m2 (small)
Launch date: June 29, 1961
Source: United States (US)
Launch site: AIR FORCE EASTERN TEST RANGE (AFETR)

Note: This is SATELLITE DEBRIS
Your satellite tracking list
Your tracking list is empty




NASA's NSSDC Master Catalog

Two Line Element Set (TLE):
1 05745U 61015JU  26013.24404640  .00012940  00000-0  28597-2 0  9999
2 05745  67.0648 177.2102 0048597 164.8435 195.4149 14.56719323244136
Source of the keplerian elements: AFSPC